EST,Max TemperatureF,Mean TemperatureF,Min TemperatureF,Max Dew PointF,MeanDew PointF,Min DewpointF,Max Humidity, Mean Humidity, Min Humidity, Max Sea Level PressureIn, Mean Sea Level PressureIn, Min Sea Level PressureIn, Max VisibilityMiles, Mean VisibilityMiles, Min VisibilityMiles, Max Wind SpeedMPH, Mean Wind SpeedMPH, Max Gust SpeedMPH,PrecipitationIn, CloudCover, Events, WindDirDegrees
2014-2-1,54,44,33,34,28,22,79,60,41,30.13,30.00,29.87,10,10,7,12,5,,0.00,7,,167
2014-2-2,46,37,28,41,33,24,100,90,73,30.22,30.04,29.93,10,4,0,14,6,,0.21,8,Fog-Rain,330
2014-2-3,32,26,19,25,21,15,89,78,57,30.38,30.23,30.13,10,7,2,13,8,18,0.00,5,Snow,9
2014-2-4,30,24,18,25,21,14,89,81,61,30.41,30.17,29.96,10,4,0,13,6,20,0.53,5,Fog-Rain-Snow,51
2014-2-5,33,28,23,31,26,18,96,87,75,30.35,29.88,29.65,10,4,1,16,9,24,0.36,8,Rain-Snow,323
2014-2-6,23,15,7,17,13,3,92,79,71,30.46,30.38,30.31,10,8,2,10,6,,0.00,7,Snow,283
2014-2-7,12,6,0,2,-3,-8,83,68,56,30.51,30.45,30.38,10,10,10,10,6,,0.00,1,,265
2014-2-8,23,13,3,17,10,0,84,76,61,30.40,30.30,30.19,10,8,1,6,1,,0.00,6,Snow,110
2014-2-9,28,24,16,25,20,10,93,81,66,30.25,30.09,30.01,10,4,1,17,6,24,0.05,7,Snow,269
2014-2-10,19,6,-7,10,1,-11,96,80,62,30.43,30.31,30.19,7,4,2,9,2,,0.00,1,Snow,289
2014-2-11,18,4,-11,6,-7,-18,87,76,54,30.53,30.46,30.36,10,5,2,7,1,,0.00,0,Snow,5
2014-2-12,28,8,-13,13,-1,-18,88,70,47,30.46,30.27,30.06,10,8,4,9,1,,0.00,0,,37
2014-2-13,34,25,16,17,12,8,74,59,42,30.04,29.83,29.63,10,9,6,9,4,,0.00,1,,323
2014-2-14,33,28,24,25,21,15,93,78,50,29.79,29.70,29.56,10,5,0,18,10,29,0.14,6,Fog-Snow,309
2014-2-15,24,14,3,19,13,-1,89,76,55,30.14,29.94,29.72,10,5,1,15,10,,0.01,6,Snow,316
2014-2-16,28,16,1,22,16,-1,91,78,65,30.37,30.11,29.98,10,5,1,15,5,21,0.00,7,Snow,269
2014-2-17,37,16,-4,34,15,-8,95,76,48,30.38,30.07,29.71,10,6,2,25,6,37,0.22,5,Rain,149
2014-2-18,46,41,36,29,27,23,76,63,41,30.14,29.99,29.84,10,10,10,22,15,36,0.00,4,,213
2014-2-19,46,37,28,39,31,24,89,70,42,30.14,29.90,29.71,10,8,3,20,9,28,0.09,2,Rain-Thunderstorm,228
2014-2-20,63,44,25,55,36,23,93,79,58,30.11,29.86,29.56,10,6,1,22,6,32,0.47,4,Rain-Thunderstorm,159
2014-2-21,60,48,36,54,33,17,90,67,35,30.01,29.76,29.53,10,9,4,25,14,45,0.15,5,Rain,243
2014-2-22,55,45,35,30,24,17,76,49,29,30.09,30.01,29.94,10,10,10,20,10,24,0.00,1,,240
2014-2-23,39,34,27,33,27,14,92,74,48,30.16,30.08,30.03,10,10,10,12,5,,0.00,5,,312
2014-2-24,33,27,21,16,13,8,75,56,37,30.25,30.21,30.15,10,10,10,18,8,25,0.00,2,,272
2014-2-25,28,24,21,19,15,8,85,69,47,30.21,30.15,30.06,10,8,1,14,8,21,0.00,7,Snow,284
2014-2-26,25,20,15,15,7,1,77,62,48,30.18,30.06,29.85,10,8,2,20,11,22,0.00,5,Snow,287
2014-2-27,23,16,8,12,5,-1,73,57,38,30.22,29.93,29.75,10,8,1,22,15,36,0.00,4,Snow,285
2014-2-28,33,18,3,14,2,-3,80,54,24,30.34,30.25,30.16,10,10,10,13,4,,0.00,0,,118